TimeMST,TemperatureF,Dew PointF,Humidity,Sea Level PressureIn,VisibilityMPH,Wind Direction,Wind SpeedMPH,Gust SpeedMPH,PrecipitationIn,Events,Conditions,WindDirDegrees,DateUTC
12:15 AM,31.1,30.6,98,29.78,2.0,Calm,Calm,-,N/A,Snow,Light Snow,0,2013-03-09 07:15:00
12:35 AM,31.1,30.6,98,29.77,4.0,Calm,Calm,-,N/A,Snow,Light Snow,0,2013-03-09 07:35:00
12:55 AM,31.1,30.6,98,29.78,1.2,Calm,Calm,-,N/A,Snow,Light Snow,0,2013-03-09 07:55:00
1:15 AM,30.6,30.0,98,29.77,3.0,SSE,3.5,-,N/A,Snow,Light Snow,150,2013-03-09 08:15:00
1:35 AM,30.7,30.2,98,29.76,3.0,Calm,Calm,-,N/A,Snow-Thunderstorm,Light Thunderstorms and Snow,0,2013-03-09 08:35:00
1:55 AM,30.6,30.2,99,29.77,2.0,South,4.6,-,N/A,Snow-Thunderstorm,Light Thunderstorms and Snow,170,2013-03-09 08:55:00
2:15 AM,30.6,30.2,99,29.75,4.0,SSE,4.6,-,N/A,Snow,Light Snow,150,2013-03-09 09:15:00
2:35 AM,30.2,29.8,99,29.75,10.0,SE,4.6,-,N/A,,Overcast,140,2013-03-09 09:35:00
2:55 AM,30.0,29.3,97,29.74,10.0,SSE,6.9,-,N/A,,Overcast,150,2013-03-09 09:55:00
3:15 AM,29.8,28.8,96,29.74,7.0,South,9.2,-,N/A,Snow,Light Snow,180,2013-03-09 10:15:00
3:35 AM,28.9,25.3,86,29.73,10.0,South,13.8,-,N/A,,Overcast,190,2013-03-09 10:35:00
3:55 AM,27.3,21.0,77,29.75,10.0,SW,12.7,18.4,N/A,,Overcast,220,2013-03-09 10:55:00
4:15 AM,26.4,21.0,80,29.75,10.0,SSW,12.7,-,N/A,,Overcast,200,2013-03-09 11:15:00
4:35 AM,25.7,21.0,82,29.76,10.0,SW,4.6,-,N/A,,Overcast,230,2013-03-09 11:35:00
4:55 AM,25.7,22.5,88,29.76,10.0,SSW,3.5,-,N/A,,Overcast,210,2013-03-09 11:55:00
5:15 AM,25.5,22.8,89,29.76,10.0,SSW,5.8,-,N/A,,Overcast,200,2013-03-09 12:15:00
5:35 AM,25.3,22.6,89,29.78,2.5,West,3.5,-,N/A,Snow,Light Snow,260,2013-03-09 12:35:00
5:55 AM,24.3,23.0,95,29.78,1.0,WSW,4.6,-,N/A,Snow,Light Snow,250,2013-03-09 12:55:00
6:15 AM,24.4,22.8,94,29.78,10.0,SW,5.8,-,N/A,Snow,Light Snow,220,2013-03-09 13:15:00
6:35 AM,24.4,22.8,94,29.78,7.0,SSW,5.8,-,N/A,Snow,Light Snow,210,2013-03-09 13:35:00
6:55 AM,23.9,22.1,93,29.78,10.0,SW,6.9,-,N/A,Snow,Light Snow,220,2013-03-09 13:55:00
7:15 AM,23.4,21.4,92,29.78,10.0,SSW,5.8,-,N/A,,Overcast,210,2013-03-09 14:15:00
7:35 AM,23.2,21.0,91,29.80,10.0,SSW,6.9,-,N/A,Snow,Light Snow,210,2013-03-09 14:35:00
7:55 AM,23.7,19.4,84,29.80,10.0,WSW,4.6,-,N/A,Snow,Light Snow,240,2013-03-09 14:55:00
8:15 AM,23.4,18.5,82,29.79,10.0,SW,5.8,-,N/A,Snow,Light Snow,230,2013-03-09 15:15:00
8:35 AM,23.4,18.3,81,29.80,5.0,SSW,3.5,-,N/A,Snow,Light Snow,210,2013-03-09 15:35:00
8:55 AM,23.2,19.0,84,29.80,5.0,SSW,5.8,-,N/A,Snow,Light Snow,200,2013-03-09 15:55:00
9:15 AM,23.2,18.5,82,29.80,10.0,South,6.9,-,N/A,Snow,Light Snow,190,2013-03-09 16:15:00
9:35 AM,23.9,18.7,80,29.80,7.0,South,6.9,-,N/A,Snow,Light Snow,190,2013-03-09 16:35:00
9:55 AM,23.9,18.7,80,29.80,5.0,SSW,5.8,-,N/A,Snow,Light Snow,210,2013-03-09 16:55:00
10:15 AM,23.9,19.4,83,29.80,2.5,SW,5.8,-,N/A,Snow,Light Snow,220,2013-03-09 17:15:00
10:35 AM,23.9,20.3,86,29.80,3.0,SW,4.6,-,N/A,Snow,Light Snow,230,2013-03-09 17:35:00
10:55 AM,25.2,21.0,84,29.80,4.0,SW,4.6,-,N/A,Snow,Light Snow,220,2013-03-09 17:55:00
11:15 AM,25.5,20.5,81,29.79,10.0,SW,9.2,-,N/A,Snow,Light Snow,220,2013-03-09 18:15:00
11:35 AM,26.1,21.2,82,29.80,10.0,SW,6.9,-,N/A,,Overcast,220,2013-03-09 18:35:00
11:55 AM,26.2,21.0,81,29.80,5.0,SSW,6.9,-,N/A,Snow,Light Snow,210,2013-03-09 18:55:00
12:15 PM,26.2,21.9,84,29.79,2.5,SW,3.5,-,N/A,Snow,Light Snow,220,2013-03-09 19:15:00
12:35 PM,26.6,22.8,86,29.78,2.0,SSW,9.2,-,N/A,Snow,Light Snow,200,2013-03-09 19:35:00
12:55 PM,27.0,24.3,90,29.78,1.2,SSW,6.9,-,N/A,Snow,Light Snow,210,2013-03-09 19:55:00
1:15 PM,27.7,24.4,88,29.77,2.5,SSW,6.9,-,N/A,Snow,Light Snow,210,2013-03-09 20:15:00
1:35 PM,28.9,25.0,85,29.77,5.0,SSW,6.9,-,N/A,,Overcast,210,2013-03-09 20:35:00
1:55 PM,29.3,24.8,83,29.76,4.0,SSW,9.2,-,N/A,Snow,Light Snow,210,2013-03-09 20:55:00
2:15 PM,29.1,24.8,84,29.78,2.5,SSW,8.1,-,N/A,Snow,Light Snow,210,2013-03-09 21:15:00
2:35 PM,29.1,24.6,83,29.78,2.5,SW,8.1,-,N/A,Snow,Light Snow,220,2013-03-09 21:35:00
2:55 PM,28.9,25.3,86,29.78,1.5,SSW,8.1,-,N/A,Snow,Light Snow,210,2013-03-09 21:55:00
3:15 PM,28.4,25.9,90,29.80,1.0,SW,5.8,-,N/A,Snow,Light Snow,230,2013-03-09 22:15:00
3:35 PM,28.8,27.0,93,29.80,1.0,SSW,4.6,-,N/A,Snow,Light Snow,210,2013-03-09 22:35:00
3:55 PM,28.4,26.4,92,29.80,1.0,SSW,5.8,-,N/A,Snow,Light Snow,210,2013-03-09 22:55:00
4:15 PM,28.6,26.8,93,29.81,1.0,SSW,5.8,-,N/A,Snow,Light Snow,210,2013-03-09 23:15:00
4:35 PM,28.9,26.4,90,29.81,1.8,SSW,4.6,-,N/A,Snow,Light Snow,210,2013-03-09 23:35:00
4:55 PM,28.9,27.1,93,29.82,2.0,South,5.8,-,N/A,Snow,Light Snow,190,2013-03-09 23:55:00
5:15 PM,28.8,26.8,92,29.83,1.8,South,5.8,-,N/A,Snow,Light Snow,180,2013-03-10 00:15:00
5:35 PM,28.4,26.2,92,29.84,2.0,SSW,4.6,-,N/A,Snow,Light Snow,200,2013-03-10 00:35:00
5:55 PM,28.4,26.6,93,29.85,1.2,Calm,Calm,-,N/A,Snow,Light Snow,0,2013-03-10 00:55:00
6:15 PM,28.0,26.8,95,29.86,2.0,East,3.5,-,N/A,Snow,Light Snow,90,2013-03-10 01:15:00
6:35 PM,28.0,27.0,96,29.87,4.0,Calm,Calm,-,N/A,Snow,Light Snow,0,2013-03-10 01:35:00
6:55 PM,27.5,26.6,96,29.88,5.0,Calm,Calm,-,N/A,Snow,Light Snow,0,2013-03-10 01:55:00
7:15 PM,27.3,26.6,97,29.88,10.0,Calm,Calm,-,N/A,,Overcast,0,2013-03-10 02:15:00
7:35 PM,27.1,26.6,98,29.90,10.0,Calm,Calm,-,N/A,,Overcast,0,2013-03-10 02:35:00
7:55 PM,25.2,24.6,98,29.91,10.0,Calm,Calm,-,N/A,,Overcast,0,2013-03-10 02:55:00
8:15 PM,24.4,23.9,98,29.92,10.0,Calm,Calm,-,N/A,,Overcast,0,2013-03-10 03:15:00
8:35 PM,26.1,25.7,99,29.92,7.0,Calm,Calm,-,N/A,,Overcast,0,2013-03-10 03:35:00
8:55 PM,25.2,24.8,99,29.93,10.0,Calm,Calm,-,N/A,,Overcast,0,2013-03-10 03:55:00
9:15 PM,24.8,24.3,98,29.94,10.0,Calm,Calm,-,N/A,,Overcast,0,2013-03-10 04:15:00
9:35 PM,26.1,25.5,98,29.94,10.0,Calm,Calm,-,N/A,,Overcast,0,2013-03-10 04:35:00
9:55 PM,26.1,25.3,97,29.95,10.0,Calm,Calm,-,N/A,,Overcast,0,2013-03-10 04:55:00
10:15 PM,26.1,25.3,97,29.95,10.0,Calm,Calm,-,N/A,,Overcast,0,2013-03-10 05:15:00
10:35 PM,26.6,25.9,97,29.96,10.0,Calm,Calm,-,N/A,,Overcast,0,2013-03-10 05:35:00
10:55 PM,25.7,24.8,96,29.96,10.0,Calm,Calm,-,N/A,,Overcast,0,2013-03-10 05:55:00
11:15 PM,24.4,23.7,97,29.95,10.0,East,4.6,-,N/A,,Scattered Clouds,100,2013-03-10 06:15:00
11:35 PM,21.9,21.0,96,29.97,10.0,Calm,Calm,-,N/A,,Mostly Cloudy,0,2013-03-10 06:35:00
11:55 PM,19.4,18.5,96,29.97,10.0,Calm,Calm,-,N/A,,Mostly Cloudy,0,2013-03-10 06:55:00